Location: Unspecified
(0.0000°N, 0.0000°E)
Time: 11:12:50
(UTC+00:00)

Vanguard 2 Rocket - Visible Passes

Search period start: 11 December 2017 00:00
Search period end: 21 December 2017 00:00
Orbit: 555 x 3326 km, 32.9° (Epoch: 10 December)

Date Brightness Start Highest point End Pass type
(mag) Time Alt. Az. Time Alt. Az. Time Alt. Az.
11 Dec 9.6 02:22:02 41° NNE 02:22:02 41° NNE 02:33:09 10° E visible
11 Dec 8.5 04:27:51 24° WNW 04:38:44 84° SW 04:47:50 10° SE visible
11 Dec 9.4 18:02:22 10° W 18:10:40 37° NNW 18:24:17 10° NE visible
11 Dec 10.3 20:21:13 10° NW 20:30:51 20° N 20:34:01 19° N visible
12 Dec 10.2 01:26:00 25° ENE 01:26:00 25° ENE 01:31:57 10° E visible
12 Dec 8.8 03:31:50 46° NW 03:37:58 74° NE 03:48:40 10° ESE visible
12 Dec 10.1 19:19:36 10° WNW 19:28:17 22° NNW 19:37:51 13° NNE visible
12 Dec 10.7 21:40:55 10° NNW 21:43:39 13° NNW 21:43:39 13° NNW visible
13 Dec 9.2 02:35:46 57° NNE 02:36:29 57° NNE 02:48:51 10° ESE visible
13 Dec 8.8 04:41:35 20° WNW 04:53:09 57° SW 05:02:13 10° SE visible
13 Dec 9.7 18:18:44 10° WNW 18:26:27 25° NNW 18:37:57 10° NNE visible
13 Dec 10.4 20:38:58 10° NW 20:47:26 17° N 20:47:26 17° N visible
14 Dec 9.8 01:39:41 38° ENE 01:39:41 38° ENE 01:48:18 10° E visible
14 Dec 8.8 03:45:30 43° WNW 03:52:37 81° SW 04:03:24 10° SE visible
14 Dec 10.3 19:37:17 10° NW 19:44:51 17° N 19:51:13 13° NNE visible
15 Dec 10.5 00:43:34 18° E 00:43:34 18° E 00:46:44 10° E visible
15 Dec 9.0 02:49:22 72° NNW 02:51:25 78° NE 03:03:59 10° ESE visible
15 Dec 9.2 04:55:11 14° W 05:07:26 39° SW 05:16:13 10° SSE visible
15 Dec 10.0 18:35:59 10° NW 18:42:39 18° N 18:51:33 10° NNE visible
15 Dec 10.5 20:56:02 10° NNW 21:00:47 15° N 21:00:47 15° N visible
16 Dec 9.4 01:53:12 54° ENE 01:53:12 54° ENE 02:03:55 10° ESE visible
16 Dec 9.0 03:59:01 35° W 04:07:00 58° SW 04:17:43 10° SE visible
16 Dec 10.4 19:55:05 10° NNW 20:01:47 14° N 20:04:33 14° NNE visible
17 Dec 10.2 00:56:59 28° E 00:56:59 28° E 01:03:00 10° E visible
17 Dec 9.0 03:02:47 66° W 03:06:00 79° SW 03:18:38 10° SE visible
17 Dec 9.7 05:10:06 10° W 05:21:52 26° SW 05:29:51 10° SSE visible
17 Dec 10.2 18:54:09 10° NNW 18:59:13 13° N 19:05:20 10° NNE visible
17 Dec 10.5 21:11:43 10° NNW 21:14:07 13° NNW 21:14:07 13° NNW visible
18 Dec 10.8 00:00:43 11° E 00:00:43 11° E 00:01:00 10° E visible
18 Dec 9.2 02:06:31 74° E 02:06:31 74° E 02:18:58 10° ESE visible
18 Dec 9.4 04:12:19 25° W 04:21:20 40° SW 04:31:43 10° SSE visible
18 Dec 10.4 20:11:46 10° NNW 20:17:53 14° N 20:17:53 14° N visible
19 Dec 9.9 01:10:12 41° E 01:10:12 41° E 01:18:33 10° ESE visible
19 Dec 9.2 03:15:59 49° W 03:20:23 58° SW 03:32:56 10° SE visible
19 Dec 10.0 05:28:25 10° WSW 05:36:42 17° SW 05:43:00 10° S visible
19 Dec 10.3 19:12:24 10° N 19:16:04 11° N 19:20:11 10° NNE visible
19 Dec 10.6 21:26:20 10° NNW 21:27:29 12° NNW 21:27:29 12° NNW visible
20 Dec 10.6 00:13:48 19° E 00:13:48 19° E 00:17:13 10° ESE visible
20 Dec 9.2 02:19:35 76° SSW 02:19:35 76° SSW 02:33:33 10° SE visible
20 Dec 9.8 04:25:23 15° W 04:35:53 28° SW 04:45:27 10° SSE visible
20 Dec 10.3 20:26:52 10° NNW 20:31:17 15° N 20:31:17 15° N visible
20 Dec11.023:17:22E23:17:22E22:37:05NWvisible
